Location: Napa Junction
(38.1874°N, 122.2508°W)
Time: 22:07:29
(UTC+00:00)

CENTAUR R/B - Pass Details

Date: 14 December 2024
Orbit: 654 x 1528 km, 63.4° (Epoch: 19 January)

Event Time Altitude Azimuth Distance (km) Brightness Sun altitude
Exits shadow 14:01:53 11° 245° (WSW) 2,329 4.1 -14.5°
Maximum altitude 14:06:53 40° 314° (NW) 1,326 2.8 -13.6°
Drops below altitude 10° 14:13:11 10° 22° (NNE) 2,917 5.0 -12.4°
Sets 14:16:22 0° 30° (NNE) 4,029 5.8 -11.8°
